Regional Weather Roundup
Issued by NWS Northern Indiana

Home | Current Version | Previous Version | Graphics & Text | Print | Product List | Glossary On
Versions: 1 2 3 4 5 6 7 8 9 10 11 12 13 14 15 16 17 18 19 20 21 22 23 24 25 26 27 28 29 30 31 32 33 34 35 36 37 38 39 40 41 42 43 44 45 46 47 48 49 50
000
ASUS43 KIWX 010600
RWRIWX

KIWX WEATHER ROUNDUP
NATIONAL WEATHER SERVICE NORTHERN INDIANA
200 AM EDT SUN MAY 01 2016

NOTE: "FAIR" INDICATES FEW OR NO CLOUDS BELOW 12,000 FEET WITH NO
SIGNIFICANT WEATHER AND/OR OBSTRUCTIONS TO VISIBILITY.

* THESE STATIONS ARE NOT UNDER NWS QUALITY CONTROL. THEY ALSO MAY NOT
  REPORT WEATHER SUCH AS PRECIPITATION OR FOG.

INZ001>027-010700-
NORTHERN INDIANA

CITY           SKY/WX    TMP DP  RH WIND       PRES   REMARKS
SOUTH BEND     CLOUDY    47  46  97 E7        29.90S
6HR MIN TEMP:  47; 6HR MAX TEMP:  48; 6HR PCP:  0.24;

GOSHEN         CLOUDY    48  46  93 E6        29.90R FOG
6HR MIN TEMP:  47; 6HR MAX TEMP:  48; 6HR PCP:  0.30;

ANGOLA*        CLOUDY    46  37  71 E6        29.89F
FORT WAYNE     CLOUDY    50  48  93 NE6       29.88F FOG
6HR MIN TEMP:  49; 6HR MAX TEMP:  51; 6HR PCP:  0.06;

PERU/GRISSOM   CLOUDY    54  54 100 NE5       29.84F FOG

$$
INZ028>050-010700-
CENTRAL INDIANA

CITY           SKY/WX    TMP DP  RH WIND       PRES   REMARKS
LAFAYETTE      CLOUDY    55  54  96 CALM      29.85S FOG
6HR MIN TEMP:  54; 6HR MAX TEMP:  56; 6HR PCP:  0.02;

KOKOMO*        CLOUDY    55  52  88 CALM      29.85F
6HR MIN TEMP:  54; 6HR MAX TEMP:  59; 6HR PCP:  0.17;

MUNCIE*        CLOUDY    63  59  87 SW7       29.87R
6HR MIN TEMP:  58; 6HR MAX TEMP:  63; 6HR PCP: TRACE;

INDIANAPOLIS   CLOUDY    61  60  97 SW6       29.88R FOG
6HR MIN TEMP:  60; 6HR MAX TEMP:  63; 6HR PCP:  0.02;


$$
MIZ043>046-050>051-056>058-064>065-071>073-077>080-010700-
SOUTHWEST LOWER MICHIGAN

CITY           SKY/WX    TMP DP  RH WIND       PRES   REMARKS
BATTLE CREEK   CLOUDY    48  46  93 NE9       29.93S FOG
6HR MIN TEMP:  47; 6HR MAX TEMP:  48; 6HR PCP:  0.23;

BENTON HARBOR  CLOUDY    49  47  93 E8        29.91S FOG
6HR MIN TEMP:  48; 6HR MAX TEMP:  50; 6HR PCP:  0.13;

COLDWATER*     LGT RAIN  48  47  99 E8        29.91S
6HR MIN TEMP:  47; 6HR MAX TEMP:  48;

HILLSDALE*     RAIN      47  47 100 NE10G16   29.91S
6HR MIN TEMP:  45; 6HR MAX TEMP:  47;

HOLLAND        CLOUDY    48  47  96 E9        29.95S
6HR MIN TEMP:  47; 6HR MAX TEMP:  53; 6HR PCP:  0.18;

GRAND RAPIDS   CLOUDY    46  44  93 NE16      29.95F
6HR MIN TEMP:  46; 6HR MAX TEMP:  49; 6HR PCP:  0.33;

KALAMAZOO      CLOUDY    49  45  86 E7        29.93R FOG
6HR MIN TEMP:  48; 6HR MAX TEMP:  49; 6HR PCP:  0.18;

STURGIS*       DRIZZLE   46  46  97 E9        29.90R
6HR MIN TEMP:  46; 6HR MAX TEMP:  47; 6HR PCP:  0.56;

THREE RIVERS*  RAIN      47  47  98 E8        29.92S

$$
OHZ001>008-015>018-024>025-010700-
NORTHWEST OHIO

CITY           SKY/WX    TMP DP  RH WIND       PRES   REMARKS
DEFIANCE       LGT RAIN  51  48  89 NE6       29.90S FOG
6HR MIN TEMP:  49; 6HR MAX TEMP:  51; 6HR PCP:  0.37;

FINDLAY        CLOUDY    54  50  86 NE6       29.86F FOG
6HR MIN TEMP:  51; 6HR MAX TEMP:  54; 6HR PCP:  0.20;

TOLEDO EXPRESS CLOUDY    49  48  97 E9        29.89F
6HR MIN TEMP:  47; 6HR MAX TEMP:  49; 6HR PCP:  0.47;

TOLEDO METCALF CLOUDY    50  48  93 NE9       29.90F
6HR MIN TEMP:  48; 6HR MAX TEMP:  50; 6HR PCP:  0.46;

LIMA           CLOUDY    57  56  96 S8        29.87F
6HR MIN TEMP:  51; 6HR MAX TEMP:  57; 6HR PCP:  0.20;


$$
AND FOR LAKE MICHIGAN COASTAL AND OPEN LAKE BUOY OBSERVATIONS

STATION/POSITION TEMP    WIND        PRES    VSBY  WAVE
                 AIR SEA DIR/SP/G                  HT/PER
                 (F)     (DEG/KT/KT) (MB)    (MI)  (FT/S)
CALUMET HARBOR    45      30/ 12/ 14 1012.4R
MICHIGAN CITY     48      50/ 10/ 10   N/A
BURNS HARBOR      47      50/ 12/ 19 1012.9R
SAINT JOSEPH      49      20/  3/ 10 1012.9F
SOUTH LAKE BUOY   43 40   60/ 16/ 17 1014.0          3/ 4
4 MI NW BRIDGMAN  49 49                N/A           2/ 4

$$
&&



USA.gov is the U.S. government's official web portal to all federal, state and local government web resources and services.